Simultaneous Nadir Overpasses (SNOs) Predictions

Prediction of SNOs between GOES-14 and NPP Satellite Orbit:

Table of predicted SNOs for the next 14.0 days since TLE Epoch: 8/3/2024
Index Date Time (GOES-14) GOES-14 Lat,Lon NPP Lat,Lon Distance(km) Time Diff (sec)
1 08/04/2024 08:39:55 -0.39,-108.47 -0.39,-108.50 3.19 80
2 08/06/2024 20:40:28 0.41,-108.43 0.24,-109.28 97.09 80
3 08/07/2024 20:24:24 0.39,-108.43 1.23,-104.75 419.56 80
4 08/09/2024 08:43:32 -0.42,-108.47 -0.06,-110.02 177.56 80
5 08/10/2024 08:27:28 -0.41,-108.47 -1.05,-105.49 338.62 80
6 08/11/2024 20:46:46 0.44,-108.42 -0.08,-110.81 272.18 80
7 08/12/2024 20:30:42 0.43,-108.42 0.92,-106.28 244.13 80
8 08/14/2024 08:49:50 -0.46,-108.46 0.24,-111.56 352.80 80
9 08/15/2024 08:33:45 -0.45,-108.45 -0.77,-107.02 162.80 80
10 08/16/2024 20:53:03 0.48,-108.39 -0.41,-112.34 449.43 80
